User: anonymous
Location: Caltech
(34.1382°N, 118.1253°W)
Time: 15:45:06
(UTC-07:00)
Language:

AO-Echo - Orbit

View from above orbital plane
View from above orbital plane
View from above satellite
View from above satellite

Ground track
Ground track

The orbit data is extracted from the following two-line orbital elements,

1 28375U 04025K   14293.43376609  .00000557  00000-0  17803-3 0  9734
2 28375 098.2645 236.1562 0082260 334.6369 025.0792 14.41463100541940
Epoch (UTC): 20 October 2014 10:24:37
Eccentricity: 0.0082260
inclination: 98.2645°
perigee height: 695 km
apogee height: 812 km
right ascension of ascending node: 236.1562°
argument of perigee: 334.6369°
revolutions per day: 14.41463100
mean anomaly at epoch: 25.0792°
orbit number at epoch: 54194

The dashed part of the orbit path shows where the satellite is in the earth's shadow,  

DLR